XE3JAR-13 Weather Reports


time (UTC)temp
C
wind
direction
speed
KPH
gust
KPH
rain 1hr
cm
rain 24hr
cm
rain mn
cm
humidity
%
barometer
mb
20260502200125 43 248 11.3 17.7 0.00 0.00 0.00 41 1014.9
20260502195034 43 180 29.0 35.4 0.00 0.00 0.00 40 1015.2
20260502194527 42 180 11.3 35.4 0.00 0.00 0.00 41 1015.2
20260502194023 42 270 11.3 29.0 0.00 0.00 0.00 41 1015.2
20260502193521 42 338 29.0 46.7 0.00 0.00 0.00 41 1015.2
20260502193020 43 293 17.7 35.4 0.00 0.00 0.00 40 1015.6
20260502192513 43 225 11.3 29.0 0.00 0.00 0.00 41 1015.6
20260502192009 43 203 17.7 40.2 0.00 0.00 0.00 41 1015.6
20260502191501 43 203 17.7 17.7 0.00 0.00 0.00 41 1015.6
20260502190954 42 270 17.7 35.4 0.00 0.00 0.00 41 1015.6
20260502190453 42 293 11.3 35.4 0.00 0.00 0.00 41 1015.6
20260502185946 42 203 11.3 17.7 0.00 0.00 0.00 41 1015.9
20260502185448 42 315 29.0 29.0 0.00 0.00 0.00 41 1015.9
20260502184939 42 203 20.9 40.2 0.00 0.00 0.00 41 1015.9
20260502184431 42 248 20.9 57.9 0.00 0.00 0.00 42 1015.9
20260502183933 42 338 49.9 49.9 0.00 0.00 0.00 40 1015.9
20260502183424 42 135 11.3 29.0 0.00 0.00 0.00 42 1015.9
20260502182917 42 338 20.9 46.7 0.00 0.00 0.00 41 1015.9
20260502182420 42 315 17.7 40.2 0.00 0.00 0.00 41 1015.9
20260502181913 42 68 0.0 11.3 0.00 0.00 0.00 41 1015.9
20260502181409 42 293 20.9 35.4 0.00 0.00 0.00 43 1015.9
20260502180906 42 248 17.7 40.2 0.00 0.00 0.00 44 1016.3
20260502180406 42 338 29.0 35.4 0.00 0.00 0.00 44 1016.3
20260502170316 40 293 11.3 64.4 0.00 0.00 0.00 49 1016.6
20260502164241 41 203 11.3 17.7 0.00 0.00 0.00 48 1016.6
20260502163739 41 338 40.2 40.2 0.00 0.00 0.00 47 1016.6
20260502163231 41 180 11.3 35.4 0.00 0.00 0.00 48 1016.6
20260502162734 41 180 17.7 46.7 0.00 0.00 0.00 47 1016.6
20260502162243 42 338 17.7 17.7 0.00 0.00 0.00 43 1016.6
20260502161229 42 270 17.7 29.0 0.00 0.00 0.00 44 1016.6
20260502160715 42 225 20.9 29.0 0.00 0.00 0.00 44 1016.6
20260502160209 42 225 11.3 20.9 0.00 0.00 0.00 44 1016.6
20260502152132 41 248 17.7 17.7 0.00 0.00 0.00 46 1016.3
20260502151627 41 248 17.7 0.0 0.00 0.00 0.00 46 1016.3
20260502151122 40 203 17.7 17.7 0.00 0.00 0.00 46 1016.3
20260502150629 38 248 17.7 20.9 0.00 0.00 0.00 47 1016.3
20260502150117 38 203 17.7 17.7 0.00 0.00 0.00 47 1016.3
20260502130351 32 158 11.3 11.3 0.00 0.00 0.00 60 1014.6
20260502123332 28 293 6.4 11.3 0.00 0.00 0.00 67 1013.9
20260502122827 27 203 11.3 11.3 0.00 0.00 0.00 67 1013.9
20260502122321 27 203 6.4 11.3 0.00 0.00 0.00 67 1013.6
20260502121814 27 203 11.3 17.7 0.00 0.00 0.00 67 1013.6
20260502121312 27 23 0.0 17.7 0.00 0.00 0.00 67 1013.6
20260502120812 27 225 6.4 11.3 0.00 0.00 0.00 67 1013.6
20260502120310 27 225 11.3 11.3 0.00 0.00 0.00 67 1013.6
20260502115809 27 225 11.3 17.7 0.00 0.00 0.00 67 1013.2
20260502115306 27 158 6.4 6.4 0.00 0.00 0.00 67 1013.2
20260502114804 27 225 17.7 17.7 0.00 0.00 0.00 66 1013.2
20260502114300 27 180 11.3 11.3 0.00 0.00 0.00 66 1013.2
20260502113249 27 225 11.3 17.7 0.00 0.00 0.00 66 1012.9
20260502112744 27 293 11.3 17.7 0.00 0.00 0.00 66 1012.5
20260502112238 27 225 0.0 11.3 0.00 0.00 0.00 65 1012.5
20260502111809 27 225 11.3 17.7 0.00 0.00 0.00 65 1012.5
20260502111242 28 225 11.3 17.7 0.00 0.00 0.00 65 1012.5
20260502110740 28 225 0.0 0.0 0.00 0.00 0.00 65 1012.5
20260502110233 27 225 17.7 17.7 0.00 0.00 0.00 65 1012.5
20260502105733 28 248 11.3 17.7 0.00 0.00 0.00 65 1012.5
20260502104318 28 90 6.4 11.3 0.00 0.00 0.00 66 1012.5
20260502103807 28 293 11.3 17.7 0.00 0.00 0.00 66 1012.5
20260502103304 28 113 6.4 11.3 0.00 0.00 0.00 66 1012.2
20260502102807 28 225 20.9 40.2 0.00 0.00 0.00 66 1012.2
20260502102257 28 225 17.7 20.9 0.00 0.00 0.00 67 1012.2
20260502101749 28 203 17.7 17.7 0.00 0.00 0.00 67 1012.2
20260502101249 28 180 11.3 11.3 0.00 0.00 0.00 67 1011.8
20260502100743 28 203 17.7 17.7 0.00 0.00 0.00 67 1011.8
20260502100239 28 225 17.7 20.9 0.00 0.00 0.00 67 1011.8
20260502091413 28 248 11.3 17.7 0.00 0.00 0.00 64 1011.8
20260502090909 28 180 0.0 11.3 0.00 0.00 0.00 64 1011.8
20260502090407 28 158 11.3 17.7 0.00 0.00 0.00 64 1011.8
20260502071152 30 225 11.3 20.9 0.00 0.00 0.00 57 1012.2
20260502070654 30 270 17.7 17.7 0.00 0.00 0.00 57 1012.2
20260502070148 30 203 17.7 17.7 0.00 0.00 0.00 57 1012.5
20260502065643 30 203 11.3 20.9 0.00 0.00 0.00 57 1012.5
20260502065141 30 248 11.3 17.7 0.00 0.00 0.00 57 1012.5
20260502064637 30 225 11.3 17.7 0.00 0.00 0.00 56 1012.5
20260502064137 30 180 17.7 17.7 0.00 0.00 0.00 56 1012.5
20260502063629 31 225 11.3 11.3 0.00 0.00 0.00 56 1012.5
20260502063127 31 180 17.7 17.7 0.00 0.00 0.00 56 1012.2
20260502062625 31 180 11.3 17.7 0.00 0.00 0.00 56 1012.5
20260502062125 31 225 11.3 17.7 0.00 0.00 0.00 56 1012.5
20260502061118 31 203 0.0 17.7 0.00 0.00 0.00 56 1012.5
20260502060617 31 270 11.3 17.7 0.00 0.00 0.00 56 1012.5
20260502060113 31 180 11.3 17.7 0.00 0.00 0.00 56 1012.5
20260502055611 31 203 17.7 17.7 0.00 0.00 0.00 56 1012.5
20260502055106 31 225 0.0 0.0 0.00 0.00 0.00 56 1012.5
20260502054603 31 180 0.0 0.0 0.00 0.00 0.00 56 1012.5
20260502053558 31 180 0.0 0.0 0.00 0.00 0.00 56 1012.5
20260502053053 31 203 0.0 0.0 0.00 0.00 0.00 56 1012.5
20260502052548 31 248 0.0 17.7 0.00 0.00 0.00 57 1012.5
20260502052043 31 248 11.3 11.3 0.00 0.00 0.00 57 1012.5
20260502051535 31 203 11.3 11.3 0.00 0.00 0.00 57 1012.5
20260502051036 31 203 11.3 11.3 0.00 0.00 0.00 57 1012.5
20260502050526 31 203 11.3 11.3 0.00 0.00 0.00 57 1012.5
20260502050021 31 203 11.3 11.3 0.00 0.00 0.00 58 1012.9
20260502045516 31 158 0.0 11.3 0.00 0.00 0.00 58 1012.9
20260502045014 31 113 6.4 11.3 0.00 0.00 0.00 58 1012.5
20260502044511 31 203 11.3 17.7 0.00 0.00 0.00 58 1012.5
20260502044006 31 203 11.3 11.3 0.00 0.00 0.00 58 1012.5
20260502043501 31 225 6.4 6.4 0.00 0.00 0.00 58 1012.5
20260502043004 31 180 11.3 17.7 0.00 0.00 0.00 58 1012.5
20260502042458 31 225 0.0 0.0 0.00 0.00 0.00 59 1012.2
20260502041956 32 225 0.0 0.0 0.00 0.00 0.00 60 1012.2
20260502041459 32 248 0.0 0.0 0.00 0.00 0.00 61 1012.2
20260502040952 32 158 0.0 0.0 0.00 0.00 0.00 62 1012.2
20260502040451 32 158 0.0 0.0 0.00 0.00 0.00 63 1012.2
20260502035952 32 180 0.0 0.0 0.00 0.00 0.00 63 1012.2
20260502035441 32 315 0.0 0.0 0.00 0.00 0.00 62 1012.2
20260502034934 32 270 0.0 0.0 0.00 0.00 0.00 62 1012.2
20260502034429 32 203 0.0 0.0 0.00 0.00 0.00 62 1011.8
20260502033927 32 225 0.0 0.0 0.00 0.00 0.00 62 1011.8
20260502033420 32 180 0.0 0.0 0.00 0.00 0.00 62 1011.5
20260502032911 32 270 0.0 0.0 0.00 0.00 0.00 63 1011.5
20260502032406 32 203 0.0 0.0 0.00 0.00 0.00 63 1011.2
20260502031905 32 203 6.4 11.3 0.00 0.00 0.00 63 1011.2
20260502031358 32 180 0.0 0.0 0.00 0.00 0.00 63 1011.5
20260502030856 32 203 0.0 11.3 0.00 0.00 0.00 64 1011.5
20260502030429 32 203 11.3 11.3 0.00 0.00 0.00 64 1011.5
20260502024055 33 158 0.0 0.0 0.00 0.00 0.00 66 1010.8
20260502023550 33 225 0.0 0.0 0.00 0.00 0.00 67 1010.8
20260502023048 33 225 0.0 0.0 0.00 0.00 0.00 67 1010.8
20260502022540 33 225 0.0 0.0 0.00 0.00 0.00 68 1010.5
20260502022038 33 225 0.0 0.0 0.00 0.00 0.00 68 1010.5
20260502021536 33 203 0.0 0.0 0.00 0.00 0.00 68 1010.5
20260502021025 33 113 0.0 0.0 0.00 0.00 0.00 67 1010.5
20260502020517 33 225 11.3 11.3 0.00 0.00 0.00 67 1010.5
20260502015510 33 225 0.0 11.3 0.00 0.00 0.00 67 1010.2
20260502015012 33 90 0.0 0.0 0.00 0.00 0.00 67 1009.8
20260502014507 33 225 0.0 11.3 0.00 0.00 0.00 67 1009.8
20260502014015 33 225 11.3 11.3 0.00 0.00 0.00 66 1009.5
20260502011402 33 113 0.0 0.0 0.00 0.00 0.00 64 1009.5
20260502010857 35 90 0.0 0.0 0.00 0.00 0.00 64 1009.1
20260502010357 35 225 0.0 0.0 0.00 0.00 0.00 63 1009.1
20260502005849 35 225 0.0 0.0 0.00 0.00 0.00 62 1008.8
20260502005347 36 248 0.0 0.0 0.00 0.00 0.00 62 1008.8
20260502004015 36 270 0.0 11.3 0.00 0.00 0.00 61 1008.8
20260502003509 36 180 0.0 0.0 0.00 0.00 0.00 60 1008.8
20260502003007 36 158 6.4 17.7 0.00 0.00 0.00 59 1008.5
20260502002506 36 113 11.3 35.4 0.00 0.00 0.00 59 1008.5
20260502002008 36 203 11.3 35.4 0.00 0.00 0.00 59 1008.5
20260502001500 37 113 11.3 20.9 0.00 0.00 0.00 59 1008.1
20260502000952 36 113 20.9 49.9 0.00 0.00 0.00 58 1008.1
20260502000446 37 113 20.9 29.0 0.00 0.00 0.00 58 1008.1
20260501235939 37 68 0.0 35.4 0.00 0.00 0.00 58 1008.1
20260501235433 37 158 0.0 46.7 0.00 0.00 0.00 57 1008.1
20260501234929 37 68 0.0 29.0 0.00 0.00 0.00 56 1008.1
20260501234424 37 113 6.4 20.9 0.00 0.00 0.00 55 1008.1
20260501233924 38 158 11.3 40.2 0.00 0.00 0.00 55 1008.1
20260501233420 38 113 6.4 29.0 0.00 0.00 0.00 54 1007.8
20260501232921 38 90 11.3 29.0 0.00 0.00 0.00 53 1007.8
20260501232436 40 90 0.0 0.0 0.00 0.00 0.00 52 1007.8
20260501231458 40 113 17.7 40.2 0.00 0.00 0.00 52 1007.4
20260501230858 40 180 35.4 40.2 0.00 0.00 0.00 52 1007.4
20260501230343 41 180 20.9 20.9 0.00 0.00 0.00 51 1007.4
20260501225843 42 203 20.9 40.2 0.00 0.00 0.00 50 1007.4
20260501225330 41 113 29.0 40.2 0.00 0.00 0.00 50 1007.4
20260501224829 42 158 0.0 17.7 0.00 0.00 0.00 49 1007.4
20260501224326 42 113 17.7 35.4 0.00 0.00 0.00 49 1007.4
20260501223814 42 225 11.3 17.7 0.00 0.00 0.00 50 1007.4
20260501223320 41 158 17.7 46.7 0.00 0.00 0.00 49 1007.4
20260501221434 42 248 11.3 35.4 0.00 0.00 0.00 46 1007.4
20260501220928 42 113 11.3 20.9 0.00 0.00 0.00 47 1007.4
20260501220426 43 225 20.9 40.2 0.00 0.00 0.00 45 1007.4
20260501215923 45 180 11.3 11.3 0.00 0.00 0.00 43 1007.4
20260501215417 46 90 46.7 46.7 0.00 0.00 0.00 43 1007.4
20260501214912 45 225 11.3 20.9 0.00 0.00 0.00 44 1007.4
20260501214410 46 158 11.3 17.7 0.00 0.00 0.00 42 1007.4
20260501213908 47 113 11.3 40.2 0.00 0.00 0.00 41 1007.8
20260501213358 47 113 11.3 20.9 0.00 0.00 0.00 38 1007.8
20260501212849 47 180 11.3 17.7 0.00 0.00 0.00 37 1007.8
20260501212345 47 248 11.3 17.7 0.00 0.00 0.00 36 1007.8
20260501211842 47 158 0.0 17.7 0.00 0.00 0.00 38 1007.8
20260501211344 47 68 11.3 17.7 0.00 0.00 0.00 38 1007.8
20260501210833 47 180 17.7 17.7 0.00 0.00 0.00 37 1008.1
20260501210329 47 90 17.7 20.9 0.00 0.00 0.00 37 1008.1
20260501205827 47 45 0.0 20.9 0.00 0.00 0.00 36 1008.1
20260501205327 47 180 11.3 17.7 0.00 0.00 0.00 37 1008.1
20260501204819 47 180 17.7 17.7 0.00 0.00 0.00 37 1008.5
20260501204315 47 180 11.3 20.9 0.00 0.00 0.00 37 1008.5
20260501203815 47 180 11.3 17.7 0.00 0.00 0.00 37 1008.5
20260501203309 47 158 11.3 20.9 0.00 0.00 0.00 37 1008.5
20260501202816 47 248 11.3 17.7 0.00 0.00 0.00 37 1008.5
20260501202306 47 270 11.3 20.9 0.00 0.00 0.00 36 1008.5
20260501201757 48 248 17.7 17.7 0.00 0.00 0.00 37 1008.8
20260501201258 47 270 0.0 17.7 0.00 0.00 0.00 37 1008.8
20260501200749 47 158 11.3 17.7 0.00 0.00 0.00 37 1009.5